Results By Division


Marshman® Triathlon Presented by Kinetic PT

Race Date: Sunday September 14, 2008
Description: 1/4 Mile Swim~12.5 Mile Bike~2 Mile Run
Race Category: Triathlon
# Entrants in Division: 30

Choose:
 Division
Place
Overall
Place
NameCityStateRace AgeGenderDivisionTimeBib#
View 1 3 Pudlinski, Mike Trooper PA 33 M 30-34 0:55:51 94
View 2 6 Gerhart, Jason New York NY 33 M 30-34 0:57:18 124
View 3 10 Phillips, Ryan West Chester PA 30 M 30-34 1:00:16 20
View 4 19 Wagner, Joshua Downingtown PA 30 M 30-34 1:01:40 90
View 5 21 Woolery, Steve Media PA 32 M 30-34 1:01:50 108
View 6 30 Oliver, Julius Staten Island NY 30 M 30-34 1:03:47 112
View 7 38 Mulhern, Owen Downingtown PA 31 M 30-34 1:05:25 96
View 8 43 Pechar, Todd Elkton ME 33 M 30-34 1:05:57 118
View 9 50 Brezski, Randall Pottstown PA 33 M 30-34 1:06:36 50
View 10 52 Mousaw, Douglas Springfield PA 34 M 30-34 1:06:55 120
View 11 54 Patterson, Jesse Wayne PA 33 M 30-34 1:07:01 145
View 12 56 Hoopes, Larry Collegeville PA 30 M 30-34 1:07:14 34
View 13 65 Kucera, James Newtown Square PA 30 M 30-34 1:07:52 22
View 14 78 Reedell, Scott Bensalem PA 33 M 30-34 1:08:55 24
View 15 148 Bellaire, David Collegeville PA 34 M 30-34 1:14:14 135
View 16 155 Bram, Geoffrey Southampton PA 32 M 30-34 1:14:42 61
View 17 158 Lilley, Jon Elkton MD 33 M 30-34 1:14:53 102
View 18 159 Jones, Ward New York NY 30 M 30-34 1:15:00 128
View 19 179 Till, Eric Newtown Square PA 31 M 30-34 1:16:07 5
View 20 182 Dorsey, Dennis Bear DE 33 M 30-34 1:16:32 33
View 21 220 Kaniewski, Rick Phoenixville PA 33 M 30-34 1:19:28 43
View 22 243 Ridpath, Kevin Springfield PA 34 M 30-34 1:20:38 119
View 23 270 Frangione, Christopher Washington DC 33 M 30-34 1:22:29 45
View 24 292 Samson, Matthew Feasterville PA 31 M 30-34 1:24:07 86
View 25 304 Remick, Jeremy Oreland PA 31 M 30-34 1:25:20 59
View 26 310 Morales, Jose Hillsdale NJ 32 M 30-34 1:26:00 106
View 27 334 Laviola, Paul Media PA 33 M 30-34 1:28:06 36
View 28 344 Granville, Joe Exton PA 32 M 30-34 1:28:39 69
View 29 408 Peterson, Robbie Laurel MD 30 M 30-34 1:34:02 62
View 30 448 Bloomfield, Carl New Egypt NJ 31 M 30-34 1:42:03 122